Weather History for Slayton, MN

Change the Weather History Date:

Thursday, September 12, 2013

  Actual Average (KOTG) Record (KOTG)
Temperature  
Mean Temperature 61 °F -  
Max Temperature 73 °F 71 °F 90 °F (1978)
Min Temperature 49 °F 50 °F 33 °F (2007)
Degree Days  
Heating Degree Days 4    
Growing Degree Days 11 (Base 50)    
Moisture  
Dew Point 47 °F    
Average Humidity 61    
Maximum Humidity 89    
Minimum Humidity 34    
Precipitation  
Precipitation 0.00 in - - ()
Sea Level Pressure  
Sea Level Pressure 30.25 in    
Wind  
Wind Speed 7 mph (NNW)    
Max Wind Speed 15 mph    
Max Gust Speed 21 mph    
Visibility 10 miles    
Events      
Averages and records for this station are not official NWS values.
T = Trace of Precipitation, MM = Missing Value Source: NWS Daily Summary

Daily Weather History Graph

Daily Weather History Graph

Search for Another Location

Airport:

Trip Planner

Search our weather history database for the weather conditions in past years. The results will help you decide how hot, cold, wet, or windy it might be!

Date:

Astronomy

Sep. 12, 2013 Rise Set
Actual Time 6:59 AM CDT 7:38 PM CDT
Civil Twilight 6:30 AM CDT 8:07 PM CDT
Nautical Twilight 5:55 AM CDT 8:41 PM CDT
Astronomical Twilight 5:19 AM CDT 9:17 PM CDT
Moon 2:41 PM CDT (9/12) No Moon Set
Length of Visible Light 13h 37m
Length of Day
12h 39m
Waxing Crescent, 50% of the Moon is Illuminated
Sep 12
Waxing Crescent
Sep 12
First Quarter
Sep 19
Full
Sep 26
Last Quarter
Oct 4
New

Hourly Weather History & Observations

Time (CDT) Temp. Dew Point Humidity Pressure Visibility Wind Dir Wind Speed Gust Speed Precip Events Conditions
12:13 AM 64.2 °F 47.1 °F 54% 30.19 in 10.0 mi North 9.2 mph - N/A   Mostly Cloudy
12:33 AM 64.0 °F 46.4 °F 53% 30.19 in 10.0 mi North 9.2 mph - N/A   Scattered Clouds
12:53 AM 63.7 °F 46.8 °F 54% 30.19 in 10.0 mi NNW 8.1 mph - N/A   Scattered Clouds
1:13 AM 63.5 °F 46.4 °F 54% 30.20 in 10.0 mi NNW 6.9 mph - N/A   Mostly Cloudy
1:33 AM 63.0 °F 46.6 °F 55% 30.20 in 10.0 mi NNW 8.1 mph - N/A   Mostly Cloudy
1:53 AM 62.6 °F 46.8 °F 56% 30.20 in 10.0 mi NNW 6.9 mph - N/A   Scattered Clouds
2:13 AM 62.1 °F 46.6 °F 57% 30.20 in 10.0 mi NNW 4.6 mph - N/A   Scattered Clouds
2:32 AM 60.1 °F 46.9 °F 62% 30.20 in 10.0 mi NNW 4.6 mph - N/A   Clear
2:53 AM 59.0 °F 46.6 °F 63% 30.20 in 10.0 mi NNW 6.9 mph - N/A   Clear
3:13 AM 57.4 °F 46.8 °F 68% 30.20 in 10.0 mi NNW 6.9 mph - N/A   Clear
3:32 AM 56.1 °F 47.3 °F 72% 30.21 in 10.0 mi NW 4.6 mph - N/A   Clear
3:53 AM 54.0 °F 48.4 °F 81% 30.21 in 10.0 mi NW 3.5 mph - N/A   Clear
4:13 AM 53.8 °F 48.0 °F 81% 30.20 in 10.0 mi WNW 3.5 mph - N/A   Clear
4:32 AM 51.3 °F 47.7 °F 87% 30.21 in 10.0 mi NW 4.6 mph - N/A   Clear
4:53 AM 51.1 °F 47.5 °F 87% 30.21 in 10.0 mi Calm Calm - N/A   Clear
5:13 AM 51.1 °F 47.3 °F 87% 30.22 in 10.0 mi Calm Calm - N/A   Clear
5:32 AM 51.8 °F 47.3 °F 85% 30.22 in 10.0 mi Calm Calm - N/A   Clear
5:53 AM 50.9 °F 46.4 °F 85% 30.22 in 10.0 mi Calm Calm - N/A   Clear
6:13 AM 50.2 °F 46.6 °F 87% 30.23 in 10.0 mi Calm Calm - N/A   Clear
6:32 AM 49.8 °F 46.4 °F 88% 30.23 in 10.0 mi WNW 3.5 mph - N/A   Clear
6:53 AM 49.1 °F 45.9 °F 89% 30.24 in 10.0 mi WNW 4.6 mph - N/A   Clear
7:13 AM 49.3 °F 46.2 °F 89% 30.24 in 10.0 mi Calm Calm - N/A   Clear
7:32 AM 50.4 °F 46.4 °F 86% 30.25 in 10.0 mi Calm Calm - N/A   Clear
7:53 AM 51.1 °F 47.1 °F 86% 30.26 in 10.0 mi NW 3.5 mph - N/A   Clear
8:13 AM 53.8 °F 48.4 °F 82% 30.27 in 10.0 mi NW 5.8 mph - N/A   Clear
8:33 AM 55.8 °F 48.9 °F 78% 30.27 in 10.0 mi NNW 6.9 mph - N/A   Clear
8:53 AM 57.7 °F 49.3 °F 73% 30.28 in 10.0 mi NW 5.8 mph - N/A   Clear
9:13 AM 59.7 °F 49.6 °F 69% 30.28 in 10.0 mi NNW 6.9 mph - N/A   Clear
9:33 AM 61.7 °F 50.0 °F 65% 30.28 in 10.0 mi NNW 5.8 mph - N/A   Clear
9:53 AM 63.5 °F 49.3 °F 60% 30.28 in 10.0 mi NNW 8.1 mph - N/A   Clear
10:13 AM 65.1 °F 48.6 °F 55% 30.29 in 10.0 mi North 9.2 mph - N/A   Clear
10:33 AM 66.4 °F 48.2 °F 52% 30.29 in 10.0 mi NNW 9.2 mph - N/A   Clear
10:53 AM 67.8 °F 47.7 °F 48% 30.29 in 10.0 mi NNW 10.4 mph - N/A   Clear
11:13 AM 68.0 °F 46.6 °F 46% 30.29 in 10.0 mi North 11.5 mph - N/A   Clear
11:33 AM 68.9 °F 45.7 °F 43% 30.29 in 10.0 mi North 13.8 mph 17.3 mph N/A   Clear
11:53 AM 69.6 °F 45.0 °F 41% 30.29 in 10.0 mi North 13.8 mph - N/A   Clear
12:13 PM 70.7 °F 45.7 °F 41% 30.29 in 10.0 mi North 12.7 mph 17.3 mph N/A   Clear
12:33 PM 70.5 °F 44.6 °F 39% 30.29 in 10.0 mi North 10.4 mph - N/A   Clear
12:52 PM 70.7 °F 44.2 °F 39% 30.29 in 10.0 mi North 11.5 mph 17.3 mph N/A   Clear
1:13 PM 71.4 °F 43.3 °F 36% 30.29 in 10.0 mi North 15.0 mph 19.6 mph N/A   Scattered Clouds
1:33 PM 71.4 °F 43.5 °F 37% 30.28 in 10.0 mi North 10.4 mph - N/A   Scattered Clouds
1:52 PM 72.1 °F 43.2 °F 35% 30.28 in 10.0 mi North 13.8 mph 20.7 mph N/A   Scattered Clouds
2:13 PM 72.5 °F 42.8 °F 34% 30.27 in 10.0 mi North 11.5 mph 18.4 mph N/A   Scattered Clouds
2:34 PM 72.1 °F 42.8 °F 35% 30.27 in 10.0 mi NW 11.5 mph 16.1 mph N/A   Clear
2:53 PM 72.1 °F 43.3 °F 35% 30.26 in 10.0 mi North 11.5 mph 17.3 mph N/A   Scattered Clouds
3:13 PM 72.0 °F 43.2 °F 35% 30.26 in 10.0 mi NW 10.4 mph 17.3 mph N/A   Scattered Clouds
3:33 PM 72.0 °F 43.9 °F 36% 30.25 in 10.0 mi NNW 15.0 mph - N/A   Scattered Clouds
3:53 PM 72.5 °F 44.1 °F 36% 30.25 in 10.0 mi North 12.7 mph 19.6 mph N/A   Scattered Clouds
4:13 PM 72.0 °F 44.1 °F 37% 30.24 in 10.0 mi NNW 15.0 mph 18.4 mph N/A   Scattered Clouds
4:33 PM 73.2 °F 43.2 °F 34% 30.24 in 10.0 mi NW 13.8 mph 20.7 mph N/A   Scattered Clouds
4:53 PM 72.1 °F 43.7 °F 36% 30.24 in 10.0 mi North 10.4 mph 16.1 mph N/A   Scattered Clouds
5:13 PM 71.8 °F 43.7 °F 36% 30.23 in 10.0 mi NNW 12.7 mph 18.4 mph N/A   Scattered Clouds
5:33 PM 71.4 °F 44.6 °F 38% 30.23 in 10.0 mi North 11.5 mph - N/A   Scattered Clouds
5:53 PM 70.7 °F 45.0 °F 40% 30.23 in 10.0 mi NNW 9.2 mph - N/A   Clear
6:12 PM 70.3 °F 45.3 °F 41% 30.24 in 10.0 mi NNW 8.1 mph - N/A   Scattered Clouds
6:33 PM 69.3 °F 46.0 °F 43% 30.24 in 10.0 mi North 8.1 mph - N/A   Scattered Clouds
6:53 PM 68.0 °F 47.8 °F 48% 30.24 in 10.0 mi North 4.6 mph - N/A   Clear
7:13 PM 65.3 °F 48.6 °F 55% 30.24 in 10.0 mi North 5.8 mph - N/A   Clear
7:33 PM 62.6 °F 49.6 °F 63% 30.25 in 10.0 mi North 3.5 mph - N/A   Clear
7:53 PM 61.5 °F 49.6 °F 65% 30.25 in 10.0 mi North 3.5 mph - N/A   Clear
8:13 PM 60.1 °F 50.0 °F 69% 30.26 in 10.0 mi North 4.6 mph - N/A   Clear
8:33 PM 59.4 °F 49.5 °F 70% 30.26 in 10.0 mi NNE 3.5 mph - N/A   Clear
8:53 PM 57.7 °F 50.0 °F 75% 30.27 in 10.0 mi North 3.5 mph - N/A   Clear
9:13 PM 57.9 °F 49.6 °F 74% 30.27 in 10.0 mi Calm Calm - N/A   Clear
9:33 PM 56.1 °F 49.3 °F 78% 30.27 in 10.0 mi North 4.6 mph - N/A   Clear
9:53 PM 56.3 °F 49.3 °F 77% 30.27 in 10.0 mi North 3.5 mph - N/A   Clear
10:13 PM 55.6 °F 49.1 °F 79% 30.27 in 10.0 mi Calm Calm - N/A   Clear
10:32 PM 54.9 °F 49.1 °F 81% 30.27 in 10.0 mi North 4.6 mph - N/A   Clear
10:53 PM 55.6 °F 48.9 °F 78% 30.27 in 10.0 mi North 4.6 mph - N/A   Clear
11:13 PM 54.3 °F 48.2 °F 80% 30.27 in 10.0 mi North 3.5 mph - N/A   Clear
11:33 PM 54.0 °F 48.4 °F 81% 30.27 in 10.0 mi Calm Calm - N/A   Clear
11:53 PM 54.0 °F 48.2 °F 81% 30.27 in 10.0 mi Calm Calm - N/A   Clear